Regional Weather Roundup
Issued by NWS San Angelo, TX

Home | Current Version | Previous Version | Text Only | Print | Product List | Glossary On
Versions: 1 2 3 4 5 6 7 8 9 10 11 12 13 14 15 16 17 18 19 20 21 22 23 24 25 26 27 28 29 30 31 32 33 34 35 36 37 38 39 40 41 42 43 44 45 46 47 48 49 50
000
ASUS44 KSJT 090358
RWRSJT
WEST CENTRAL TEXAS REGIONAL WEATHER ROUNDUP
NATIONAL WEATHER SERVICE SAN ANGELO TX
1000 PM CST MON FEB 08 2016

NOTE: "FAIR" INDICATES FEW OR NO CLOUDS BELOW 12,000 FEET WITH NO
SIGNIFICANT WEATHER AND/OR OBSTRUCTIONS TO VISIBILITY.

TXZ049-054-064>066-071>073-076>078-098-099-113-114-127-128-139-140-
154-155-168>170-090500
...LOCATIONS ACROSS WEST CENTRAL TEXAS...

CITY           SKY/WX    TMP DP  RH WIND       PRES   REMARKS
SAN ANGELO     CLEAR     41  16  36 W10       30.37R WCI  35
ABILENE        CLEAR     37  18  46 CALM      30.35S
DYESS AFB      NOT AVBL
JUNCTION       CLEAR     37  19  48 W5        30.37R WCI  33
SWEETWATER     NOT AVBL
BROWNWOOD      NOT AVBL
COLEMAN        NOT AVBL
SONORA         NOT AVBL
OZONA          NOT AVBL
BRADY          NOT AVBL
$$

TEXAS PANHANDLE/OKLAHOMA PANHANDLE

CITY           SKY/WX    TMP DP  RH WIND       PRES   REMARKS
AMARILLO       CLOUDY    34  19  54 W9        30.37S WCI  27
BORGER         CLEAR     37  20  50 W7        30.36S WCI  32
CANADIAN       NOT AVBL
DALHART        CLOUDY    31  18  58 NW7       30.39R WCI  24
DUMAS          NOT AVBL
GUYMON         NOT AVBL
HEREFORD       NOT AVBL
PAMPA          NOT AVBL
PERRYTON       NOT AVBL
$$

SOUTHERN PANHANDLE/SOUTH PLAINS/ROLLING PLAINS

CITY           SKY/WX    TMP DP  RH WIND       PRES   REMARKS
LUBBOCK        CLEAR     36  18  48 NW5       30.38S WCI  32
SNYDER         NOT AVBL
CHILDRESS      CLEAR     38  18  44 NW6       30.34S WCI  33
SEMINOLE       NOT AVBL
$$

PERMIAN BASIN

CITY           SKY/WX    TMP DP  RH WIND       PRES   REMARKS
MIDLAND        CLEAR     36  19  50 NW6       30.41R WCI  31
ODESSA         CLEAR     42  16  34 W5        30.41R WCI  39
WINK           CLEAR     34  14  43 N6        30.40R WCI  29
$$

FAR WEST/SOUTHWEST MOUNTAINS/TRANS PECOS

CITY           SKY/WX    TMP DP  RH WIND       PRES   REMARKS
ALPINE         NOT AVBL
DRYDEN           N/A     40  14  34 NW6       30.38S WCI  36
EL PASO        CLEAR     46  13  26 E7        30.34R
FORT STOCKTON  CLOUDY    39  19  44 S7        30.40R WCI  34
GUADALUPE PASS CLOUDY    40  10  29 NE6       30.38R WCI  36
MARFA          NOT AVBL
PECOS          NOT AVBL
$$

DALLAS/FORT WORTH METROPLEX

CITY           SKY/WX    TMP DP  RH WIND       PRES   REMARKS
DFW AIRPORT    CLEAR     45   8  22 NW12      30.27S WCI  39
FTW MEACHAM    CLEAR     45   9  23 NW12      30.29S WCI  39
DAL-EXECUTIVE  CLEAR     45   9  23 NW10      30.26S WCI  40
GRAND PRAIRIE  NOT AVBL
ADDISON        CLEAR     46  16  29 NW7       30.27F
MESQUITE       NOT AVBL
LANCASTER      NOT AVBL
$$

NORTH CENTRAL TEXAS

CITY           SKY/WX    TMP DP  RH WIND       PRES   REMARKS
SHRMAN/DENISON NOT AVBL
GAINESVILLE    NOT AVBL
BRIDGEPORT     NOT AVBL
DENTON         CLEAR     38  12  34 NW7       30.28S WCI  33
WAXAHACHIE     NOT AVBL
GRANBURY       NOT AVBL
$$

WESTERN NORTH TEXAS

CITY           SKY/WX    TMP DP  RH WIND       PRES   REMARKS
WICHITA FALLS  CLEAR     39   9  29 NW12      30.31S WCI  32
VERNON         NOT AVBL
BRECKENRIDGE   NOT AVBL
COMANCHE       NOT AVBL
$$

CENTRAL AND SOUTH CENTRAL TEXAS

CITY           SKY/WX    TMP DP  RH WIND       PRES   REMARKS
AUSTIN/BERGSTM PTCLDY    45  22  40 SW7       30.34R
WACO           CLEAR     38  17  42 NW7       30.31R WCI  33
HILLSBORO      NOT AVBL
TEMPLE         CLEAR     43  18  36 NW5       30.32R
KILLEEN-GRAY   NOT AVBL
FORT HOOD      NOT AVBL
GEORGETOWN     CLEAR     39  18  41 W7        30.32S WCI  34
LAGO VISTA     NOT AVBL
SAN MARCOS     NOT AVBL
NEW BRAUNFELS  PTCLDY    41  23  48 W7        30.34R WCI  36
RANDOLPH AFB   NOT AVBL
SAN ANTONIO    PTCLDY    44  25  47 NW7       30.36R
STINSON        CLOUDY    43  28  55 NW3       30.35R
PLEASANTON     NOT AVBL
LA GRANGE      NOT AVBL
GIDDINGS       NOT AVBL
$$

EAST TEXAS

CITY           SKY/WX    TMP DP  RH WIND       PRES   REMARKS
PARIS          NOT AVBL
CLARKSVILLE    NOT AVBL
TYLER          CLEAR     44  12  27 NW8       30.23R WCI  39
LONGVIEW       CLEAR     44  13  28 NW12      30.20R WCI  38
PALESTINE      NOT AVBL
NACOGDOCHES    NOT AVBL
$$

TEXAS HILL COUNTRY AND EDWARDS PLATEAU

CITY           SKY/WX    TMP DP  RH WIND       PRES   REMARKS
LLANO          NOT AVBL
HORSESHOE BAY  NOT AVBL
KERRVILLE      NOT AVBL
FREDERICKSBRG  NOT AVBL
ROCKSPRINGS    NOT AVBL
HONDO          CLOUDY    41  18  39 NW6       30.39S WCI  37
UVALDE         NOT AVBL
DEL RIO        PTCLDY    47  20  34 N5        30.39S
$$

SOUTHEAST TEXAS

CITY           SKY/WX    TMP DP  RH WIND       PRES   REMARKS
COLLEGE STN    CLEAR     44  19  36 W6        30.30S
CALDWELL       NOT AVBL
CROCKETT       NOT AVBL
BRENHAM        NOT AVBL
HUNTSVILLE     CLEAR     47  13  25 NW6       30.26S
CONROE         CLEAR     38  25  59 N3        30.27S
HOUSTON BUSH   PTCLDY    49  14  24 W6        30.28R
HOUSTON HOBBY  CLEAR     54  10  17 NW8       30.29R
PERLAND        CLEAR     53  11  18 NW7       30.31R
WHARTON        NOT AVBL
$$

THE UPPER TEXAS COAST

CITY           SKY/WX    TMP DP  RH WIND       PRES   REMARKS
ORANGE         NOT AVBL
PORT ARTHUR    CLEAR     41  24  51 W6        30.25R WCI  37
GALVESTON      CLEAR     52  24  33 NW9       30.30R
ANGLETON       CLEAR     50  22  33 NW5       30.31R
BAY CITY       NOT AVBL
$$

TEXAS COASTAL BEND, RIO GRANDE PLAINS DEEP SOUTH TEXAS

CITY           SKY/WX    TMP DP  RH WIND       PRES   REMARKS
VICTORIA       CLEAR     42  29  59 NW7       30.35R WCI  38
BEEVILLE       NOT AVBL
ROCKPORT       CLEAR     54  37  52 NW5       30.35R
PORT ARANSAS   NOT AVBL
PORT LAVACA    NOT AVBL
CORPUS CHRISTI MOCLDY    48  18  30 NW7       30.36R
KINGSVILLE NAS CLOUDY    51  28  41 NW6       30.36R
COTULLA        CLOUDY    50  22  33 NW3       30.38R
LAREDO         NOT AVBL
BROWNSVILLE    CLOUDY    50  42  74 CALM      30.38R
PORT ISABEL    PTCLDY    49  41  74 W5        30.36R
HEBBRONVILLE   NOT AVBL
MCALLEN        CLOUDY    57  33  40 SW5       30.38R
WESLACO        NOT AVBL
FALFURRIAS     NOT AVBL
EDINBURG       NOT AVBL
$$



USA.gov is the U.S. government's official web portal to all federal, state and local government web resources and services.